Regional Weather Roundup
Issued by NWS Columbia, SC

Home | Current Version | Previous Version | Text Only | Print | Product List | Glossary On
Versions: 1 2 3 4 5 6 7 8 9 10 11 12 13 14 15 16 17 18 19 20 21 22 23 24 25 26 27 28 29 30 31 32 33 34 35 36 37 38 39 40 41 42 43 44 45 46 47 48 49 50
000
ASUS42 KCAE 301010
RWRCAE
REGIONAL WEATHER ROUNDUP
NATIONAL WEATHER SERVICE COLUMBIA SC
600 AM EDT TUE SEP 30 2014

NOTE: "FAIR" INDICATES FEW OR NO CLOUDS BELOW 12,000 FEET WITH NO
SIGNIFICANT WEATHER AND/OR OBSTRUCTIONS TO VISIBILITY.

NOT ALL STATIONS ARE QUALITY CONTROLLED BY THE NATIONAL
WEATHER SERVICE. USE DATA WITH CAUTION...ESPECIALLY
DEWPOINT OBSERVATIONS.

SCZ001>056-GAZ040-063>065-077-301100-
...UPSTATE SOUTH CAROLINA...

CITY           SKY/WX    TMP DP  RH WIND       PRES   REMARKS
ANDERSON       FOG       61  60  97 CALM      29.95S VSB 1/4
LIBERTY        FOG       56  56 100 MISG      29.95S VSB 1/2
SPARTANBURG    FAIR      59  59 100 CALM      29.94S FOG
CLEMSON        FOG       63  60  90 CALM      29.96S VSB 1/2
GREENVILLE     CLEAR     60  58  92 CALM      29.96S
GREENWOOD      FOG       62  60  93 CALM      29.95S VSB 1/4
GREER          FOG       58  57  97 CALM      29.94R VSB 1
ROCK HILL      FOG       60  60 100 CALM      29.95R VSB 1/4
CHESTER        FAIR      63  63 100 CALM      29.99S FOG
LAURENS        FOG       59 N/A N/A CALM      29.95S VSB 3/4


...CENTRAL SOUTH CAROLINA...

CITY           SKY/WX    TMP DP  RH WIND       PRES   REMARKS
COLUMBIA APT   CLEAR     64  61  90 CALM      29.91S
COLUMBIA OWENS CLEAR     63  60  90 CALM      29.92S
DARLINGTON     CLEAR     61  55  82 N3        29.92S
FLORENCE       CLEAR     61  59  93 N5        29.90S
MCENTIRE ANGB  CLEAR     61  61  99 VRB3      29.92R
ORANGEBURG     CLEAR     63  60  90 N3        29.91R
SUMTER SHAW    CLEAR     60  56  88 NW1       29.90S
NEWBERRY       FOG       63  63 100 CALM      29.96S VSB 1/4
AIKEN          PTSUNNY   61  61 100 CALM      29.95S
BARNWELL       CLOUDY    64  63  94 N5        29.91S
MANNING        FAIR      61 N/A N/A CALM      29.90S
CAMDEN         FAIR      59  59 100 CALM      29.93S FOG
LANCASTER      RAIN      61  61 100 CALM      29.93S
WINNSBORO      FOG       59  59 100 N3        29.93S VSB 1/2


...EASTERN AND COASTAL SOUTH CAROLINA...

CITY           SKY/WX    TMP DP  RH WIND       PRES   REMARKS
MYRTLE BEACH   MOCLDY    64  61  88 N7        29.87F
N MYRTLE BCH   PTCLDY    64  62  93 N6        29.87S FOG
CONWAY         FAIR      61  61 100 CALM      29.89S FOG
MARION         FAIR      59  59 100 CALM      29.90S FOG
HARTSVILLE     FAIR      63  61  94 N5        29.92S
FLORENCE       CLEAR     61  59  93 N5        29.90S
DARLINGTON     CLEAR     61  55  82 N3        29.92S
CHARLESTON APT CLOUDY    65  62  90 N6        29.87S
MOUNT PLEASANT CLOUDY    64  63  94 N7        29.87S
WALTERBORO     CLOUDY    64 N/A N/A CALM      29.89S
BEAUFORT       CLOUDY    66  64  93 N10       29.87S


...EASTERN GEORGIA...

CITY           SKY/WX    TMP DP  RH WIND       PRES   REMARKS
AUGUSTA BUSH F MOCLDY    65  62  90 N6        29.91S
AUGUSTA DANIEL MOCLDY    66  62  87 NE7       29.92S
THOMSON        CLOUDY    68  68 100 N3        29.97R
WASHINGTON     MOCLDY    66 N/A N/A CALM      29.94S HAZE
CLAXTON          N/A     68  68 100 CALM      29.88S
SYLVANIA       CLOUDY    68  68  98 NE6       29.90R
STATESBORO     CLOUDY    65  65 100 N5        29.89S
SAVANNAH       CLOUDY    68  65  90 N9        29.87R


...SOUTHERN NORTH CAROLINA...

CITY           SKY/WX    TMP DP  RH WIND       PRES   REMARKS
CHARLOTTE      FOG       61  57  88 CALM      29.94S VSB 1/4
MONROE         CLEAR     59  58  96 CALM      29.92F FOG
WADESBORO      FOG       63  62  96 CALM      29.92S VSB<1/4
ROCKINGHAM     FOG       61  61  99 CALM      29.92S VSB 1/2
RUTHERFORDTON  CLEAR     60  60  99 CALM      29.96S
ASHEVILLE      PTCLDY    58  56  93 NW5       30.00S

$$


USA.gov is the U.S. government's official web portal to all federal, state and local government web resources and services.